Weather in Dipayal Silgadhi

Nepal     29°14′29″N   80°59′43″E
temp.,
°C
wind,
m/s
gust,
m/s
humid.,
%
clouds,
%
prec.,
mm/h
press.,
hPa
HPBL,
m
17 may, tue
tue1723:45+20nnw32445 0.1 100736
02:45+19n22490 0.0 100627
05:45+19nnw22484 0.0 100631
08:45+27ssw11305 0.0 1006863
11:45+32sse231998 0.0 10044279
14:45+25ese454098 0.4 1005358
17:45+26nnw34318 0.4 10041076
20:45+19n335217 0.0 100748
18 may, wed
wed1823:45+18nnw224732 0.0 100733
02:45+18n2243100 0.0 100632
05:45+19n2240100 0.0 100731
08:45+28n122493 0.0 1007712
11:45+31ssw341789 0.0 10053690
14:45+32sse231882 0.1 10033564
17:45+21nnw5751100 0.2 1009337
20:45+19n3358100 0.1 100964
19 may, thu
thu1923:45+18n335497 0.1 100842
02:45+20n224496 0.0 100746
05:45+20n224199 0.0 100727
08:45+28e112561 0.0 1007568
11:45+33ssw241652 0.0 10053779
14:45+32sw541868 0.0 10023096
17:45+31sse232081 0.0 10012551
20:45+26wnw573098 0.0 1004279
20 may, fri
fri2023:45+22n223911 0.0 100427
02:45+20n224222 0.0 100430
05:45+20nnw124222 0.0 100517
08:45+28sw22261 0.0 1004801
11:45+33s361955 0.0 10014056
14:45+33s2419100 0.0 9973660
17:45+18nne1280100 4.9 1005182
20:45+18n237275 0.1 100238
21 may, sat
sat2123:45+18n33652 0.1 100235
02:45+18n22571 0.0 100021
05:45+17nnw22540 0.0 100216
08:45+27sse11305 0.0 1001521
11:45+33sse28178 0.0 9984060
14:45+33ssw4519100 0.0 9954074
17:45+20nne236999 0.9 1001105
20:45+19ene3470100 0.3 1002123